AO-07 1 07530U 74089B 25188.89526135 -.00000027 00000-0 12269-3 0 9999 2 07530 101.9931 193.4606 0012623 68.9038 356.2821 12.53690020317611 UO-11 1 14781U 84021B 25188.48140100 .00000899 00000-0 10019-3 0 9998 2 14781 97.7558 154.3013 0006407 238.7897 121.2693 14.89451456205796 AO-27 1 22825U 93061C 25188.60958745 .00000065 00000-0 41998-4 0 9992 2 22825 98.7354 250.3031 0009000 37.6497 322.5313 14.30807041657720 FO-29 1 24278U 96046B 25188.62527098 -.00000038 00000-0 10331-5 0 9996 2 24278 98.5724 78.8245 0348824 269.9509 86.1666 13.53250102426561 NOAA-15 1 25338U 98030A 25188.85852935 .00000166 00000-0 85824-4 0 9994 2 25338 98.5339 213.3075 0008988 277.4215 82.5944 14.26993235412432 GO-32 1 25397U 98043D 25188.51026054 .00000049 00000-0 41403-4 0 9996 2 25397 98.9715 168.2142 0002251 110.6544 249.4876 14.24320776402262 ISS 1 25544U 98067A 25188.82582176 .00007346 00000-0 13458-3 0 9997 2 25544 51.6366 204.7716 0002141 348.1048 7.5113 15.50422679518352 NO-44 1 26931U 01043C 25188.86757905 .00000078 00000-0 60373-4 0 9998 2 26931 67.0511 54.7018 0006206 276.7883 83.2513 14.31745859241313 SO-50 1 27607U 02058C 25188.76580000 .00001061 00000-0 14903-3 0 9995 2 27607 64.5527 113.5276 0059431 327.8812 31.8677 14.81693712213618 CO-55 1 27844U 03031E 25188.57469958 .00000242 00000-0 12439-3 0 9999 2 27844 98.6755 196.4865 0010883 104.5663 255.6723 14.24014089142629 CO-57 1 27848U 03031J 25188.74709817 .00000210 00000-0 11165-3 0 9993 2 27848 98.6782 196.6413 0010613 119.5893 240.6344 14.23346418142420 RS-22 1 27939U 03042A 25188.88166684 .00000765 00000-0 12904-3 0 9997 2 27939 98.3299 359.0203 0010139 281.6363 186.3114 14.72406519164999 CO-58 1 28895U 05043F 25188.88221391 .00001154 00000-0 19601-3 0 9993 2 28895 98.2531 333.5924 0013861 212.9030 147.1315 14.71087404 51337 CO-65 1 32785U 08021C 25188.87068488 .00004363 00000-0 31451-3 0 9992 2 32785 97.7854 160.2487 0011084 113.9710 246.2677 15.04645231933405 CO-66 1 32791U 08021J 25188.50302425 .00009569 00000-0 45710-3 0 9997 2 32791 97.7276 169.1784 0005661 81.2988 278.8886 15.19242285934734 RS-30 1 32953U 08025A 25188.81107105 .00000039 00000-0 21038-3 0 9993 2 32953 82.5009 209.6215 0018871 348.1739 11.8895 12.43166016777040 NOAA-19 1 33591U 09005A 25188.80360747 .00000144 00000-0 10097-3 0 9993 2 33591 98.9962 253.6651 0012676 285.0115 74.9653 14.13386204846091 SRMSAT 1 37841U 11058D 25188.79824600 .00000367 00000-0 55831-4 0 9990 2 37841 19.9737 343.7892 0011819 15.4908 13.8308 14.11442916709321 ZACUBE-1 1 39417U 13066B 25188.86451978 .00003121 00000-0 27236-3 0 9992 2 39417 97.7798 145.7333 0043090 319.1389 40.6604 14.96876133629149 Delfi-N3xt 1 39428U 13066N 25188.72665220 .00004399 00000-0 44843-3 0 9997 2 39428 97.8338 106.0678 0082481 267.9261 91.2509 14.88688898623443 GOMX-1 1 39430U 13066Q 25188.84744729 .00001594 00000-0 25214-3 0 9990 2 39430 97.6811 45.7738 0133793 101.8126 259.8122 14.67731057619558 LO-74 1 39440U 13066AA 25188.81564728 .00002641 00000-0 26904-3 0 9998 2 39440 97.8498 133.1838 0063539 86.9803 273.8683 14.90086158626849 AO-73 1 39444U 13066AE 25188.18481637 .00006443 00000-0 47938-3 0 9993 2 39444 97.7803 150.2089 0041029 293.9192 65.7738 15.02640414627734 DTUSAT-2 1 40030U 14033W 25188.88191729 .00005336 00000-0 34579-3 0 9995 2 40030 98.0552 162.0766 0008227 333.9715 26.1097 15.08562860601177 EO-80 1 40032U 14033Y 25188.37003682 .00004766 00000-0 30877-3 0 9994 2 40032 98.0439 161.1566 0006642 265.2610 94.7859 15.08639595600560 LILACSAT-2 1 40908U 15049K 25188.88946085 .00009178 00000-0 23588-3 0 9996 2 40908 97.5047 209.9273 0010669 66.0413 294.1949 15.39460702542588 IO-86 1 40931U 15052B 25151.18580175 .00001241 00000-0 78118-4 0 9996 2 40931 6.0006 24.0987 0012733 338.8432 21.1169 14.78805930523047 Horyu-4 1 41340U 16012D 25187.68003615 .00018680 00000-0 48234-3 0 9991 2 41340 30.9974 309.5549 0006424 349.1361 10.9146 15.37864928516965 Lapan A3 1 41603U 16040E 25188.88608728 .00002501 00000-0 88429-4 0 9999 2 41603 97.1367 192.3853 0011579 159.2521 200.9192 15.30017858502118 CAS-2T 1 41847U 16066G 25188.82478140 .00001268 00000-0 18707-3 0 9994 2 41847 98.4195 263.0391 0347060 93.0859 271.0096 14.43568339455094 CAS-4B 1 42759U 17034B 25188.86710833 .00059854 00000-0 54671-3 0 9999 2 42759 43.0041 152.8498 0019276 131.0956 229.1578 15.66754267447039 CAS-4A 1 42761U 17034D 25188.87532705 .00064563 00000-0 55301-3 0 9997 2 42761 43.0080 149.6205 0020412 136.3138 223.9348 15.68269372447069 TechnoSat 1 42829U 17042E 25188.82837009 .00002383 00000-0 18660-3 0 9990 2 42829 97.3845 356.1830 0016492 179.0539 181.0721 15.01824368434969 AO-91 1 43017U 17073E 25188.58608580 .00008127 00000-0 41094-3 0 9996 2 43017 97.5224 58.6486 0172900 71.3946 290.5971 15.05123457413422 S-Net D 1 43186U 18014G 25188.22919471 .00003933 00000-0 23238-3 0 9994 2 43186 97.5603 90.8545 0010477 124.1317 236.0909 15.12035419406553 S-Net B 1 43187U 18014H 25188.23495798 .00003671 00000-0 21723-3 0 9993 2 43187 97.5609 90.8334 0011298 120.2469 239.9881 15.12015562406551 S-Net A 1 43188U 18014J 25188.22949049 .00003929 00000-0 23207-3 0 9991 2 43188 97.5616 90.9818 0011144 120.9785 239.2541 15.12040343406557 S-Net C 1 43189U 18014K 25188.23743458 .00003658 00000-0 21639-3 0 9995 2 43189 97.5634 91.0085 0012780 114.8973 245.3587 15.12011444405102 Ten-Koh 1 43677U 18084G 25188.00131092 .00001635 00000-0 13427-3 0 9993 2 43677 98.0847 1.3425 0007982 160.3942 199.7589 15.00673790364358 PO-101 1 43678U 18084H 25188.76970962 .00002093 00000-0 18062-3 0 9993 2 43678 98.1040 5.9708 0008558 180.6364 179.4848 14.98427852364605 QO-100 1 43700U 18090A 25188.78282546 .00000161 00000-0 00000 0 0 9995 2 43700 0.0139 312.6272 0002569 188.9499 92.0165 1.00272624 24465 MinXSS-2 1 43758U 18099A 25188.13154825 .00012572 00000-0 48406-3 0 9999 2 43758 97.5013 254.2667 0012670 64.7135 295.5414 15.26431335361179 AO-95 1 43770U 18099N 25188.60832309 .00006543 00000-0 32781-3 0 9995 2 43770 97.4907 246.3886 0012266 113.2834 246.9692 15.17641796360807 RANGE-A 1 43773U 18099R 25188.58023566 .00003020 00000-0 19300-3 0 9991 2 43773 97.4469 236.1707 0013111 96.1744 264.0980 15.09298120360442 MOVE-II 1 43780U 18099Y 25188.72454549 .01067096 59921-3 18212-2 0 9997 2 43780 97.4590 266.9699 0010519 250.0357 109.9790 16.02573702362260 SNUSat 2 1 43782U 18099AA 25188.87923350 .00005381 00000-0 29149-3 0 9997 2 43782 97.4589 243.1763 0013243 61.5165 298.7399 15.14954453360783 SnugLite 1 43784U 18099AC 25188.83011086 .00007175 00000-0 35616-3 0 9998 2 43784 97.4399 242.7465 0004821 72.1234 288.0525 15.17984187360924 ITASat 1 1 43786U 18099AE 25188.58599718 .00004476 00000-0 25489-3 0 9993 2 43786 97.4551 242.3153 0015929 108.7289 251.5673 15.13216421360691 EAGLET 1 1 43790U 18099AJ 25188.13305484 .00002746 00000-0 17615-3 0 9994 2 43790 97.4752 241.7373 0013821 95.4226 264.8580 15.09243688360221 ESEO 1 43792U 18099AL 25188.56952524 .00000582 00000-0 47836-4 0 9991 2 43792 97.4447 235.0528 0014469 69.0365 291.2407 15.02692826360027 CSIM 1 43793U 18099AM 25188.78486924 .00113950 00000-0 52791-3 0 9991 2 43793 97.4778 269.0072 0001574 160.2023 199.9308 15.83146766362093 JO-97 1 43803U 18099AX 25188.14802065 .00008163 00000-0 36715-3 0 9998 2 43803 97.4651 246.9843 0008472 58.9845 301.2222 15.21341537360966 Suomi 100 1 43804U 18099AY 25188.14162655 .00006850 00000-0 33156-3 0 9990 2 43804 97.4719 246.1945 0013424 57.8963 302.3572 15.18816935360885 ISAT 1 43879U 18111D 25188.54579794 .00015125 00000-0 51005-3 0 9995 2 43879 97.5942 103.5714 0010837 98.9978 261.2489 15.30763330355959 UWE-4 1 43880U 18111E 25188.73236346 .00010471 00000-0 40220-3 0 9997 2 43880 97.5888 102.0407 0013816 109.2221 251.0513 15.26549309355925 Sparrow 1 43881U 18111F 25188.76598354 .00015812 00000-0 51236-3 0 9994 2 43881 97.6090 106.7857 0008609 128.6571 231.5442 15.32061795356109 Prox-1 1 44339U 19036A 25188.45999442 .00007566 00000-0 93451-3 0 9991 2 44339 23.9958 238.5985 0007700 35.9034 324.1979 14.80404483322153 SONATE 1 44400U 19038Q 25185.47540524 .09032085 27445-5 31847-3 0 9995 2 44400 97.6609 216.4776 0012462 246.7970 113.2018 16.43248376333575 Taurus 1 1 44530U 19059C 25188.84693009 .00004250 00000-0 78290-3 0 9993 2 44530 98.6091 329.5904 0007946 310.2938 49.7569 14.66104692308083 Duchifat 3 1 44854U 19089C 25188.04354977 .00035908 00000-0 65373-3 0 9997 2 44854 36.9403 180.3029 0005487 202.8342 157.2172 15.48550630307271 TO-108 1 44881U 19093C 25188.78087786 .00000714 00000-0 88387-4 0 9992 2 44881 97.7919 263.8408 0014854 135.0429 225.1992 14.85646973300260 FloripaSat 1 1 44885U 19093G 25188.79188445 .00004752 00000-0 39942-3 0 9999 2 44885 97.8171 276.4521 0012777 109.9684 250.2915 14.98715696300971 RS-44 1 44909U 19096E 25188.54250148 .00000028 00000-0 72233-4 0 9995 2 44909 82.5195 208.6999 0216510 230.0055 128.1863 12.79741632258265 UPMSat 2 1 46276U 20061E 25188.72168904 .00066481 00000-0 50093-3 0 9990 2 46276 97.2422 264.1207 0002162 147.5449 212.5948 15.72313618269881 SALSAT 1 46495U 20068K 25188.86941829 .00005298 00000-0 22771-3 0 9991 2 46495 97.8610 168.2127 0012928 68.5481 291.7132 15.23059370262833 CubeSX-Sirius-HSE 1 47951U 21022V 25157.62701764 .07883385 25648-5 89537-3 0 9993 2 47951 97.4004 72.1904 0010275 223.9924 136.0557 16.36879307233400 CubeSX-HSE 1 47952U 21022W 25157.69972699 .06655353 25454-5 93288-3 0 9992 2 47952 97.3980 72.5414 0010307 219.3637 140.6911 16.34906352233436 GRBAlpha 1 47959U 21022AD 25160.45426279 .07940347 25506-5 90589-3 0 9995 2 47959 97.3899 75.6235 0011032 227.2558 132.7812 16.36806138232695 TUBIN 1 48900U 21059X 25188.85397082 .00034242 00000-0 38321-3 0 9999 2 48900 97.6753 0.4277 0004223 129.6619 230.5011 15.62646304224451 LEDSAT 1 49069U 21073D 25188.74161745 .00062481 00000-0 65326-3 0 9996 2 49069 97.3880 271.5274 0006883 327.4010 32.6824 15.64243425215835 CUTE 1 49263U 21088D 25188.10017530 .00012901 00000-0 24963-3 0 9994 2 49263 97.4505 265.1693 0009391 136.4408 223.7585 15.47834244208684 TeikyoSat 4 1 49396U 21102B 25188.55862154 .00001336 00000-0 91287-4 0 9991 2 49396 97.4088 225.9761 0013592 43.7526 316.4776 15.07738929200768 Z-Sat 1 49399U 21102E 25188.89656758 .00002657 00000-0 14685-3 0 9995 2 49399 97.3786 229.5739 0018110 11.7898 348.3755 15.14607788201261 KOSEN 1 1 49402U 21102H 25188.83825509 .00004452 00000-0 20566-3 0 9996 2 49402 97.3692 233.1479 0015008 346.4571 13.6260 15.20601568201588 HO-113 1 50466U 21131B 25188.88595811 .00000353 00000-0 12385-3 0 9991 2 50466 98.5108 278.1010 0005150 62.0081 298.1628 14.40841138185522 Foresail-1 1 52766U 22057AL 25176.64799660 .13857605 27391-5 25307-3 0 9992 2 52766 97.5832 331.2310 0012137 233.7199 258.4922 16.46795272172486 SNUGLITE 2 1 52899U 22065F 25188.45841486 .00000775 00000-0 15957-3 0 9991 2 52899 98.1720 330.1659 0008210 34.9967 325.1773 14.63265094160564 UmKA 1 (RS40S) 1 57172U 23091G 25188.80047438 .00003607 00000-0 19312-3 0 9990 2 57172 97.5569 244.0374 0013094 232.3969 127.6075 15.15603756111752 CubeBel-2 (EU11S) 1 57175U 23091K 25188.88660698 .00006457 00000-0 30482-3 0 9997 2 57175 97.5569 245.4446 0010751 238.2795 121.7392 15.19746050111856 VERONIKA 1 58261U 23174F 25188.80291635 .00203368 00000-0 11157-2 0 9996 2 58261 97.4099 276.8473 0005686 251.3679 108.6971 15.79200375 93123 ENSO 1 58470U 23185J 25188.84694764 .00044147 00000-0 57532-3 0 9990 2 58470 97.3726 264.9267 0004689 337.2653 22.8395 15.58595011 89435 EIRSAT-1 1 58472U 23185L 25188.87387558 .00122430 00000-0 87146-3 0 9991 2 58472 97.3661 267.4092 0002802 296.8593 63.2384 15.73480315 89600 SONATE-2 1 59112U 24043Q 25188.83042664 .00012190 00000-0 34355-3 0 9994 2 59112 97.5166 320.5947 0010862 20.6092 339.5588 15.36523294 74675 MO-122 1 60209U 24125G 25188.57769789 .00014018 00000-0 38773-3 0 9998 2 60209 97.2771 39.8943 0019254 41.8516 318.4197 15.36934241 56253 GRBBeta 1 60237U 24128C 25188.61641313 .00003087 00000-0 23791-3 0 9997 2 60237 61.9925 341.7874 0053944 63.6115 297.0499 15.02836941 54416 Curium One 1 60242U 24128H 25188.60540097 .00005364 00000-0 37438-3 0 9992 2 60242 61.9822 339.6980 0053820 59.9137 300.7276 15.05458660 54457 ROBUSTA-3A 1 60243U 24128J 25188.61684518 .00005549 00000-0 39218-3 0 9994 2 60243 61.9894 340.5807 0052758 57.6548 302.9636 15.04984177 54445 CatSat 1 60246U 24125J 25188.54159191 .00007737 00000-0 25535-3 0 9998 2 60246 97.2570 38.7506 0041716 357.0845 3.0147 15.30835890 54264 HYPERVIEW-1G (RS66S) 1 61772U 24199AP 25188.81993563 .00015977 00000-0 44976-3 0 9998 2 61772 97.3504 57.6326 0015308 92.7240 267.5757 15.36428761 81295 AO-123 1 61781U 24199AY 25188.86091768 .00005055 00000-0 18324-3 0 9993 2 61781 97.3520 56.2490 0017559 97.2386 263.0851 15.28666141 81205 ZIMSAT 2 1 61783U 24199BA 25188.83529776 .00029310 00000-0 67670-3 0 9995 2 61783 97.3479 58.4894 0014946 90.2862 270.0098 15.42378095 84502 HADES-R (SO-124) 1 62690U 25009CK 25188.47160367 .00028601 00000-0 96208-3 0 9992 2 62690 97.4087 269.1979 0001810 22.9024 337.2297 15.30759212 26413 HYDRA-T 1 62692U 25009CM 25188.19064888 .00036160 00000-0 12039-2 0 9992 2 62692 97.4092 268.9625 0001420 22.8732 337.2572 15.31041918 26377 JINJUSat 1B 1 63210U 25052A 25188.68886336 .00008042 00000-0 36413-3 0 9992 2 63210 97.4394 82.4615 0003235 196.7449 163.3681 15.21140870 17521 NUSHSAT 1 1 63211U 25052B 25188.67908733 .00008735 00000-0 39198-3 0 9990 2 63211 97.4384 82.4601 0003108 202.9840 157.1257 15.21422997 17523 TEVEL2-4 1 63213U 25052D 25188.63258142 .00008887 00000-0 40249-3 0 9997 2 63213 97.4302 82.2472 0001767 216.8306 143.2808 15.21104473 17512 TEVEL2-5 1 63214U 25052E 25188.69933211 .00008800 00000-0 39882-3 0 9997 2 63214 97.4300 82.3109 0001730 219.0027 141.1084 15.21082390 17521 TEVEL2-6 1 63215U 25052F 25188.70221353 .00008970 00000-0 40692-3 0 9996 2 63215 97.4302 82.3090 0001771 220.9898 139.1205 15.21042002 17523 TEVEL2-1 1 63217U 25052H 25188.65155460 .00008856 00000-0 40446-3 0 9997 2 63217 97.4276 82.1875 0001710 251.9761 108.1288 15.20815607 17514 TEVEL2-2 1 63218U 25052J 25187.92807724 .00008866 00000-0 40508-3 0 9994 2 63218 97.4278 81.4748 0001696 259.5200 100.5844 15.20803146 17400 TEVEL2-3 1 63219U 25052K 25187.66511462 .00009504 00000-0 43410-3 0 9992 2 63219 97.4275 81.2144 0001685 262.5428 97.5616 15.20792666 17361 TEVEL2-8 1 63237U 25052AD 25188.60815711 .00008221 00000-0 38913-3 0 9998 2 63237 97.4340 82.0357 0006032 278.4768 81.5783 15.19588849 17499 TEVEL2-9 1 63238U 25052AE 25188.67750094 .00007786 00000-0 36942-3 0 9993 2 63238 97.4341 82.0986 0006141 279.3408 80.7132 15.19523839 17500 TEVEL2-7 1 63239U 25052AF 25188.68007930 .00007770 00000-0 36905-3 0 9991 2 63239 97.4340 82.0938 0006181 279.3004 80.7531 15.19491002 17502 HYDRA-W 1 63490U 25052BL 25188.58491170 .00021030 00000-0 85772-3 0 9993 2 63490 97.4289 82.4486 0009175 273.0974 86.9213 15.24422735 17528 HADES-ICM (SO-125) 1 63492U 25052BN 25188.67397407 .00018433 00000-0 76350-3 0 9998 2 63492 97.4298 82.4911 0009557 277.8182 82.1970 15.23926240 17538